owner,sensor,date,latitude,longitude,vertical_datum,sea_water_practical_salinity,qcFlag 
WAVCIS,ioos:station:WAVCIS:CSI16:1,2009-06-01T00:00:00Z,29.4012,-89.0355,1.0,23.786,11111222 
WAVCIS,ioos:station:WAVCIS:CSI16:1,2009-06-01T00:15:00Z,29.4012,-89.0355,1.0,23.483,11111222 
WAVCIS,ioos:station:WAVCIS:CSI16:1,2009-06-01T00:30:00Z,29.4012,-89.0355,1.0,23.253,11111222 
WAVCIS,ioos:station:WAVCIS:CSI16:1,2009-06-01T00:45:00Z,29.4012,-89.0355,1.0,23.343,11111222 
WAVCIS,ioos:station:WAVCIS:CSI16:1,2009-06-01T01:00:00Z,29.4012,-89.0355,1.0,23.129,11111222 
WAVCIS,ioos:station:WAVCIS:CSI16:1,2009-06-01T01:15:00Z,29.4012,-89.0355,1.0,22.405,11111222 
WAVCIS,ioos:station:WAVCIS:CSI16:1,2009-06-01T01:30:00Z,29.4012,-89.0355,1.0,21.738,11111222 
WAVCIS,ioos:station:WAVCIS:CSI16:1,2009-06-01T01:45:00Z,29.4012,-89.0355,1.0,22.168,11111222 
WAVCIS,ioos:station:WAVCIS:CSI16:1,2009-06-01T02:00:00Z,29.4012,-89.0355,1.0,21.744,11111222 
WAVCIS,ioos:station:WAVCIS:CSI16:1,2009-06-01T02:15:00Z,29.4012,-89.0355,1.0,22.277,11111222 
WAVCIS,ioos:station:WAVCIS:CSI16:1,2009-06-01T02:30:00Z,29.4012,-89.0355,1.0,21.21,11111222 
WAVCIS,ioos:station:WAVCIS:CSI16:1,2009-06-01T02:45:00Z,29.4012,-89.0355,1.0,20.733,11111222 
WAVCIS,ioos:station:WAVCIS:CSI16:1,2009-06-01T03:00:00Z,29.4012,-89.0355,1.0,20.585,11111222 
WAVCIS,ioos:station:WAVCIS:CSI16:1,2009-06-01T03:15:00Z,29.4012,-89.0355,1.0,20.25,11111222 
WAVCIS,ioos:station:WAVCIS:CSI16:1,2009-06-01T03:30:00Z,29.4012,-89.0355,1.0,19.879,11111222 
WAVCIS,ioos:station:WAVCIS:CSI16:1,2009-06-01T03:45:00Z,29.4012,-89.0355,1.0,19.859,11111222 
WAVCIS,ioos:station:WAVCIS:CSI16:1,2009-06-01T04:00:00Z,29.4012,-89.0355,1.0,19.863,11111222 
WAVCIS,ioos:station:WAVCIS:CSI16:1,2009-06-01T04:15:00Z,29.4012,-89.0355,1.0,19.4,11111222 
WAVCIS,ioos:station:WAVCIS:CSI16:1,2009-06-01T04:30:00Z,29.4012,-89.0355,1.0,19.643,11111222 
WAVCIS,ioos:station:WAVCIS:CSI16:1,2009-06-01T04:45:00Z,29.4012,-89.0355,1.0,19.151,11111222 
WAVCIS,ioos:station:WAVCIS:CSI16:1,2009-06-01T05:00:00Z,29.4012,-89.0355,1.0,19.022,11111222 
WAVCIS,ioos:station:WAVCIS:CSI16:1,2009-06-01T05:15:00Z,29.4012,-89.0355,1.0,17.764,11111222 
WAVCIS,ioos:station:WAVCIS:CSI16:1,2009-06-01T05:30:00Z,29.4012,-89.0355,1.0,18.146,11111222 
WAVCIS,ioos:station:WAVCIS:CSI16:1,2009-06-01T05:45:00Z,29.4012,-89.0355,1.0,18.399,11111222 
WAVCIS,ioos:station:WAVCIS:CSI16:1,2009-06-01T06:00:00Z,29.4012,-89.0355,1.0,18.395,11111222 
WAVCIS,ioos:station:WAVCIS:CSI16:1,2009-06-01T06:15:00Z,29.4012,-89.0355,1.0,19.032,11111222 
WAVCIS,ioos:station:WAVCIS:CSI16:1,2009-06-01T06:30:00Z,29.4012,-89.0355,1.0,22.594,11111222 
WAVCIS,ioos:station:WAVCIS:CSI16:1,2009-06-01T06:45:00Z,29.4012,-89.0355,1.0,23.191,11111222 
WAVCIS,ioos:station:WAVCIS:CSI16:1,2009-06-01T07:00:00Z,29.4012,-89.0355,1.0,23.595,11111222 
WAVCIS,ioos:station:WAVCIS:CSI16:1,2009-06-01T07:15:00Z,29.4012,-89.0355,1.0,23.984,11111222 
WAVCIS,ioos:station:WAVCIS:CSI16:1,2009-06-01T07:30:00Z,29.4012,-89.0355,1.0,24.037,11111222 
WAVCIS,ioos:station:WAVCIS:CSI16:1,2009-06-01T07:45:00Z,29.4012,-89.0355,1.0,24.085,11111222 
WAVCIS,ioos:station:WAVCIS:CSI16:1,2009-06-01T08:00:00Z,29.4012,-89.0355,1.0,24.222,11111222 
WAVCIS,ioos:station:WAVCIS:CSI16:1,2009-06-01T08:15:00Z,29.4012,-89.0355,1.0,24.51,11111222 
WAVCIS,ioos:station:WAVCIS:CSI16:1,2009-06-01T08:30:00Z,29.4012,-89.0355,1.0,24.705,11111222 
WAVCIS,ioos:station:WAVCIS:CSI16:1,2009-06-01T08:45:00Z,29.4012,-89.0355,1.0,24.633,11111222 
WAVCIS,ioos:station:WAVCIS:CSI16:1,2009-06-01T09:00:00Z,29.4012,-89.0355,1.0,24.718,11111222 
WAVCIS,ioos:station:WAVCIS:CSI16:1,2009-06-01T09:15:00Z,29.4012,-89.0355,1.0,24.543,11111222 
WAVCIS,ioos:station:WAVCIS:CSI16:1,2009-06-01T09:30:00Z,29.4012,-89.0355,1.0,24.804,11111222 
WAVCIS,ioos:station:WAVCIS:CSI16:1,2009-06-01T09:45:00Z,29.4012,-89.0355,1.0,24.852,11111222 
WAVCIS,ioos:station:WAVCIS:CSI16:1,2009-06-01T10:00:00Z,29.4012,-89.0355,1.0,25.237,11111222 
WAVCIS,ioos:station:WAVCIS:CSI16:1,2009-06-01T10:15:00Z,29.4012,-89.0355,1.0,25.254,11111222 
WAVCIS,ioos:station:WAVCIS:CSI16:1,2009-06-01T10:30:00Z,29.4012,-89.0355,1.0,25.291,11111222 
WAVCIS,ioos:station:WAVCIS:CSI16:1,2009-06-01T10:45:00Z,29.4012,-89.0355,1.0,25.267,11111222 
WAVCIS,ioos:station:WAVCIS:CSI16:1,2009-06-01T11:00:00Z,29.4012,-89.0355,1.0,25.403,11111222 
WAVCIS,ioos:station:WAVCIS:CSI16:1,2009-06-01T11:15:00Z,29.4012,-89.0355,1.0,25.511,11111222 
WAVCIS,ioos:station:WAVCIS:CSI16:1,2009-06-01T11:30:00Z,29.4012,-89.0355,1.0,25.602,11111222 
WAVCIS,ioos:station:WAVCIS:CSI16:1,2009-06-01T11:45:00Z,29.4012,-89.0355,1.0,25.635,11111222 
WAVCIS,ioos:station:WAVCIS:CSI16:1,2009-06-01T12:00:00Z,29.4012,-89.0355,1.0,25.806,11111222 
WAVCIS,ioos:station:WAVCIS:CSI16:1,2009-06-01T12:15:00Z,29.4012,-89.0355,1.0,25.888,11111222 
WAVCIS,ioos:station:WAVCIS:CSI16:1,2009-06-01T12:30:00Z,29.4012,-89.0355,1.0,24.906,11111222 
WAVCIS,ioos:station:WAVCIS:CSI16:1,2009-06-01T12:45:00Z,29.4012,-89.0355,1.0,26.463,11111222 
WAVCIS,ioos:station:WAVCIS:CSI16:1,2009-06-01T13:00:00Z,29.4012,-89.0355,1.0,26.206,11111222 
WAVCIS,ioos:station:WAVCIS:CSI16:1,2009-06-01T13:15:00Z,29.4012,-89.0355,1.0,25.784,11111222 
WAVCIS,ioos:station:WAVCIS:CSI16:1,2009-06-01T13:30:00Z,29.4012,-89.0355,1.0,26.357,11111222 
WAVCIS,ioos:station:WAVCIS:CSI16:1,2009-06-01T13:45:00Z,29.4012,-89.0355,1.0,25.756,11111222 
WAVCIS,ioos:station:WAVCIS:CSI16:1,2009-06-01T14:00:00Z,29.4012,-89.0355,1.0,26.31,11111222 
WAVCIS,ioos:station:WAVCIS:CSI16:1,2009-06-01T14:15:00Z,29.4012,-89.0355,1.0,24.613,11111222 
WAVCIS,ioos:station:WAVCIS:CSI16:1,2009-06-01T14:30:00Z,29.4012,-89.0355,1.0,25.774,11111222 
WAVCIS,ioos:station:WAVCIS:CSI16:1,2009-06-01T14:45:00Z,29.4012,-89.0355,1.0,25.588,11111222 
WAVCIS,ioos:station:WAVCIS:CSI16:1,2009-06-01T15:00:00Z,29.4012,-89.0355,1.0,24.572,11111222 
WAVCIS,ioos:station:WAVCIS:CSI16:1,2009-06-01T15:15:00Z,29.4012,-89.0355,1.0,25.85,11111222 
WAVCIS,ioos:station:WAVCIS:CSI16:1,2009-06-01T15:30:00Z,29.4012,-89.0355,1.0,24.774,11111222 
WAVCIS,ioos:station:WAVCIS:CSI16:1,2009-06-01T15:45:00Z,29.4012,-89.0355,1.0,24.595,11111222 
WAVCIS,ioos:station:WAVCIS:CSI16:1,2009-06-01T16:00:00Z,29.4012,-89.0355,1.0,25.29,11111222 
WAVCIS,ioos:station:WAVCIS:CSI16:1,2009-06-01T16:15:00Z,29.4012,-89.0355,1.0,24.777,11111222 
WAVCIS,ioos:station:WAVCIS:CSI16:1,2009-06-01T16:30:00Z,29.4012,-89.0355,1.0,26.083,11111222 
WAVCIS,ioos:station:WAVCIS:CSI16:1,2009-06-01T16:45:00Z,29.4012,-89.0355,1.0,26.428,11111222 
WAVCIS,ioos:station:WAVCIS:CSI16:1,2009-06-01T17:00:00Z,29.4012,-89.0355,1.0,24.965,11111222 
WAVCIS,ioos:station:WAVCIS:CSI16:1,2009-06-01T17:15:00Z,29.4012,-89.0355,1.0,26.302,11111222 
WAVCIS,ioos:station:WAVCIS:CSI16:1,2009-06-01T17:30:00Z,29.4012,-89.0355,1.0,24.103,11111222 
WAVCIS,ioos:station:WAVCIS:CSI16:1,2009-06-01T17:45:00Z,29.4012,-89.0355,1.0,23.311,11111222 
WAVCIS,ioos:station:WAVCIS:CSI16:1,2009-06-01T18:00:00Z,29.4012,-89.0355,1.0,21.601,11111222 
WAVCIS,ioos:station:WAVCIS:CSI16:1,2009-06-01T18:15:00Z,29.4012,-89.0355,1.0,23.114,11111222 
WAVCIS,ioos:station:WAVCIS:CSI16:1,2009-06-01T18:30:00Z,29.4012,-89.0355,1.0,23.914,11111222 
WAVCIS,ioos:station:WAVCIS:CSI16:1,2009-06-01T18:45:00Z,29.4012,-89.0355,1.0,21.345,11111222 
WAVCIS,ioos:station:WAVCIS:CSI16:1,2009-06-01T19:00:00Z,29.4012,-89.0355,1.0,16.246,11111222 
WAVCIS,ioos:station:WAVCIS:CSI16:1,2009-06-01T19:15:00Z,29.4012,-89.0355,1.0,20.525,11111222 
WAVCIS,ioos:station:WAVCIS:CSI16:1,2009-06-01T19:30:00Z,29.4012,-89.0355,1.0,23.027,11111222 
WAVCIS,ioos:station:WAVCIS:CSI16:1,2009-06-01T19:45:00Z,29.4012,-89.0355,1.0,17.921,11111222 
WAVCIS,ioos:station:WAVCIS:CSI16:1,2009-06-01T20:00:00Z,29.4012,-89.0355,1.0,17.49,11111222 
WAVCIS,ioos:station:WAVCIS:CSI16:1,2009-06-01T20:15:00Z,29.4012,-89.0355,1.0,16.611,11111222 
WAVCIS,ioos:station:WAVCIS:CSI16:1,2009-06-01T20:30:00Z,29.4012,-89.0355,1.0,17.388,11111222 
WAVCIS,ioos:station:WAVCIS:CSI16:1,2009-06-01T20:45:00Z,29.4012,-89.0355,1.0,17.547,11111222 
WAVCIS,ioos:station:WAVCIS:CSI16:1,2009-06-01T21:00:00Z,29.4012,-89.0355,1.0,16.069,11111222 
WAVCIS,ioos:station:WAVCIS:CSI16:1,2009-06-01T21:15:00Z,29.4012,-89.0355,1.0,15.75,11111222 
WAVCIS,ioos:station:WAVCIS:CSI16:1,2009-06-01T21:30:00Z,29.4012,-89.0355,1.0,15.493,11111222 
WAVCIS,ioos:station:WAVCIS:CSI16:1,2009-06-01T21:45:00Z,29.4012,-89.0355,1.0,15.684,11111222 
WAVCIS,ioos:station:WAVCIS:CSI16:1,2009-06-01T22:00:00Z,29.4012,-89.0355,1.0,16.374,11111222 
WAVCIS,ioos:station:WAVCIS:CSI16:1,2009-06-01T22:15:00Z,29.4012,-89.0355,1.0,17.993,11111222 
WAVCIS,ioos:station:WAVCIS:CSI16:1,2009-06-01T22:30:00Z,29.4012,-89.0355,1.0,18.639,11111222 
WAVCIS,ioos:station:WAVCIS:CSI16:1,2009-06-01T22:45:00Z,29.4012,-89.0355,1.0,18.205,11111222 
WAVCIS,ioos:station:WAVCIS:CSI16:1,2009-06-01T23:00:00Z,29.4012,-89.0355,1.0,18.435,11111222 
WAVCIS,ioos:station:WAVCIS:CSI16:1,2009-06-01T23:15:00Z,29.4012,-89.0355,1.0,17.23,11111222 
WAVCIS,ioos:station:WAVCIS:CSI16:1,2009-06-01T23:30:00Z,29.4012,-89.0355,1.0,16.78,11111222 
WAVCIS,ioos:station:WAVCIS:CSI16:1,2009-06-01T23:45:00Z,29.4012,-89.0355,1.0,16.43,11111222 
WAVCIS,ioos:station:WAVCIS:CSI16:1,2009-06-02T00:00:00Z,29.4012,-89.0355,1.0,16.761,11111222 
WAVCIS,ioos:station:WAVCIS:CSI16:1,2009-06-02T00:15:00Z,29.4012,-89.0355,1.0,16.768,11111222 
WAVCIS,ioos:station:WAVCIS:CSI16:1,2009-06-02T00:30:00Z,29.4012,-89.0355,1.0,17.434,11111222 
WAVCIS,ioos:station:WAVCIS:CSI16:1,2009-06-02T00:45:00Z,29.4012,-89.0355,1.0,16.501,11111222 
WAVCIS,ioos:station:WAVCIS:CSI16:1,2009-06-02T01:00:00Z,29.4012,-89.0355,1.0,16.636,11111222 
WAVCIS,ioos:station:WAVCIS:CSI16:1,2009-06-02T01:15:00Z,29.4012,-89.0355,1.0,16.171,11111222 
WAVCIS,ioos:station:WAVCIS:CSI16:1,2009-06-02T01:30:00Z,29.4012,-89.0355,1.0,15.161,11111222 
WAVCIS,ioos:station:WAVCIS:CSI16:1,2009-06-02T01:45:00Z,29.4012,-89.0355,1.0,16.312,11111222 
WAVCIS,ioos:station:WAVCIS:CSI16:1,2009-06-02T02:00:00Z,29.4012,-89.0355,1.0,11.569,11111222 
WAVCIS,ioos:station:WAVCIS:CSI16:1,2009-06-02T02:15:00Z,29.4012,-89.0355,1.0,12.216,11111222 
WAVCIS,ioos:station:WAVCIS:CSI16:1,2009-06-02T02:30:00Z,29.4012,-89.0355,1.0,11.892,11111222 
WAVCIS,ioos:station:WAVCIS:CSI16:1,2009-06-02T02:45:00Z,29.4012,-89.0355,1.0,12.494,11111222 
WAVCIS,ioos:station:WAVCIS:CSI16:1,2009-06-02T03:00:00Z,29.4012,-89.0355,1.0,14.326,11111222 
WAVCIS,ioos:station:WAVCIS:CSI16:1,2009-06-02T03:15:00Z,29.4012,-89.0355,1.0,11.994,11111222 
WAVCIS,ioos:station:WAVCIS:CSI16:1,2009-06-02T03:30:00Z,29.4012,-89.0355,1.0,18.432,11111222 
WAVCIS,ioos:station:WAVCIS:CSI16:1,2009-06-02T03:45:00Z,29.4012,-89.0355,1.0,18.368,11111222 
WAVCIS,ioos:station:WAVCIS:CSI16:1,2009-06-02T04:00:00Z,29.4012,-89.0355,1.0,18.951,11111222 
WAVCIS,ioos:station:WAVCIS:CSI16:1,2009-06-02T04:15:00Z,29.4012,-89.0355,1.0,20.576,11111222 
WAVCIS,ioos:station:WAVCIS:CSI16:1,2009-06-02T04:30:00Z,29.4012,-89.0355,1.0,20.685,11111222 
WAVCIS,ioos:station:WAVCIS:CSI16:1,2009-06-02T04:45:00Z,29.4012,-89.0355,1.0,21.058,11111222 
WAVCIS,ioos:station:WAVCIS:CSI16:1,2009-06-02T05:00:00Z,29.4012,-89.0355,1.0,21.626,11111222 
WAVCIS,ioos:station:WAVCIS:CSI16:1,2009-06-02T05:15:00Z,29.4012,-89.0355,1.0,23.08,11111222 
WAVCIS,ioos:station:WAVCIS:CSI16:1,2009-06-02T05:30:00Z,29.4012,-89.0355,1.0,23.873,11111222 
WAVCIS,ioos:station:WAVCIS:CSI16:1,2009-06-02T05:45:00Z,29.4012,-89.0355,1.0,23.693,11111222 
WAVCIS,ioos:station:WAVCIS:CSI16:1,2009-06-02T06:00:00Z,29.4012,-89.0355,1.0,23.642,11111222 
WAVCIS,ioos:station:WAVCIS:CSI16:1,2009-06-02T06:15:00Z,29.4012,-89.0355,1.0,24.066,11111222 
WAVCIS,ioos:station:WAVCIS:CSI16:1,2009-06-02T06:30:00Z,29.4012,-89.0355,1.0,23.89,11111222 
WAVCIS,ioos:station:WAVCIS:CSI16:1,2009-06-02T06:45:00Z,29.4012,-89.0355,1.0,23.996,11111222 
WAVCIS,ioos:station:WAVCIS:CSI16:1,2009-06-02T07:00:00Z,29.4012,-89.0355,1.0,23.702,11111222 
WAVCIS,ioos:station:WAVCIS:CSI16:1,2009-06-02T07:15:00Z,29.4012,-89.0355,1.0,23.479,11111222 
WAVCIS,ioos:station:WAVCIS:CSI16:1,2009-06-02T07:30:00Z,29.4012,-89.0355,1.0,23.426,11111222 
WAVCIS,ioos:station:WAVCIS:CSI16:1,2009-06-02T07:45:00Z,29.4012,-89.0355,1.0,22.5,11111222 
WAVCIS,ioos:station:WAVCIS:CSI16:1,2009-06-02T08:00:00Z,29.4012,-89.0355,1.0,23.334,11111222 
WAVCIS,ioos:station:WAVCIS:CSI16:1,2009-06-02T08:15:00Z,29.4012,-89.0355,1.0,21.977,11111222 
WAVCIS,ioos:station:WAVCIS:CSI16:1,2009-06-02T08:30:00Z,29.4012,-89.0355,1.0,20.942,11111222 
WAVCIS,ioos:station:WAVCIS:CSI16:1,2009-06-02T08:45:00Z,29.4012,-89.0355,1.0,21.404,11111222 
WAVCIS,ioos:station:WAVCIS:CSI16:1,2009-06-02T09:00:00Z,29.4012,-89.0355,1.0,18.899,11111222 
WAVCIS,ioos:station:WAVCIS:CSI16:1,2009-06-02T09:15:00Z,29.4012,-89.0355,1.0,22.432,11111222 
WAVCIS,ioos:station:WAVCIS:CSI16:1,2009-06-02T09:30:00Z,29.4012,-89.0355,1.0,24.292,11111222 
WAVCIS,ioos:station:WAVCIS:CSI16:1,2009-06-02T09:45:00Z,29.4012,-89.0355,1.0,22.534,11111222 
WAVCIS,ioos:station:WAVCIS:CSI16:1,2009-06-02T10:00:00Z,29.4012,-89.0355,1.0,21.806,11111222 
WAVCIS,ioos:station:WAVCIS:CSI16:1,2009-06-02T10:15:00Z,29.4012,-89.0355,1.0,23.115,11111222 
WAVCIS,ioos:station:WAVCIS:CSI16:1,2009-06-02T10:30:00Z,29.4012,-89.0355,1.0,25.053,11111222 
WAVCIS,ioos:station:WAVCIS:CSI16:1,2009-06-02T10:45:00Z,29.4012,-89.0355,1.0,22.636,11111222 
WAVCIS,ioos:station:WAVCIS:CSI16:1,2009-06-02T11:00:00Z,29.4012,-89.0355,1.0,14.22,11111222 
WAVCIS,ioos:station:WAVCIS:CSI16:1,2009-06-02T11:15:00Z,29.4012,-89.0355,1.0,21.764,11111222 
WAVCIS,ioos:station:WAVCIS:CSI16:1,2009-06-02T11:30:00Z,29.4012,-89.0355,1.0,19.177,11111222 
WAVCIS,ioos:station:WAVCIS:CSI16:1,2009-06-02T11:45:00Z,29.4012,-89.0355,1.0,25.225,11111222 
WAVCIS,ioos:station:WAVCIS:CSI16:1,2009-06-02T12:00:00Z,29.4012,-89.0355,1.0,25.564,11111222 
WAVCIS,ioos:station:WAVCIS:CSI16:1,2009-06-02T12:15:00Z,29.4012,-89.0355,1.0,25.735,11111222 
WAVCIS,ioos:station:WAVCIS:CSI16:1,2009-06-02T12:30:00Z,29.4012,-89.0355,1.0,25.38,11111222 
WAVCIS,ioos:station:WAVCIS:CSI16:1,2009-06-02T12:45:00Z,29.4012,-89.0355,1.0,25.618,11111222 
WAVCIS,ioos:station:WAVCIS:CSI16:1,2009-06-02T13:00:00Z,29.4012,-89.0355,1.0,25.449,11111222 
WAVCIS,ioos:station:WAVCIS:CSI16:1,2009-06-02T13:15:00Z,29.4012,-89.0355,1.0,25.798,11111222 
WAVCIS,ioos:station:WAVCIS:CSI16:1,2009-06-02T13:30:00Z,29.4012,-89.0355,1.0,25.501,11111222 
WAVCIS,ioos:station:WAVCIS:CSI16:1,2009-06-02T13:45:00Z,29.4012,-89.0355,1.0,25.6,11111222 
WAVCIS,ioos:station:WAVCIS:CSI16:1,2009-06-02T14:00:00Z,29.4012,-89.0355,1.0,25.674,11111222 
WAVCIS,ioos:station:WAVCIS:CSI16:1,2009-06-02T14:15:00Z,29.4012,-89.0355,1.0,25.754,11111222 
WAVCIS,ioos:station:WAVCIS:CSI16:1,2009-06-02T14:30:00Z,29.4012,-89.0355,1.0,25.95,11111222 
WAVCIS,ioos:station:WAVCIS:CSI16:1,2009-06-02T14:45:00Z,29.4012,-89.0355,1.0,26.072,11111222 
WAVCIS,ioos:station:WAVCIS:CSI16:1,2009-06-02T15:00:00Z,29.4012,-89.0355,1.0,26.021,11111222 
WAVCIS,ioos:station:WAVCIS:CSI16:1,2009-06-02T15:15:00Z,29.4012,-89.0355,1.0,26.154,11111222 
WAVCIS,ioos:station:WAVCIS:CSI16:1,2009-06-02T15:30:00Z,29.4012,-89.0355,1.0,26.274,11111222 
WAVCIS,ioos:station:WAVCIS:CSI16:1,2009-06-02T15:45:00Z,29.4012,-89.0355,1.0,26.278,11111222 
WAVCIS,ioos:station:WAVCIS:CSI16:1,2009-06-02T16:00:00Z,29.4012,-89.0355,1.0,26.303,11111222 
WAVCIS,ioos:station:WAVCIS:CSI16:1,2009-06-02T16:15:00Z,29.4012,-89.0355,1.0,26.311,11111222 
WAVCIS,ioos:station:WAVCIS:CSI16:1,2009-06-02T16:30:00Z,29.4012,-89.0355,1.0,26.32,11111222 
WAVCIS,ioos:station:WAVCIS:CSI16:1,2009-06-02T16:45:00Z,29.4012,-89.0355,1.0,26.192,11111222 
WAVCIS,ioos:station:WAVCIS:CSI16:1,2009-06-02T17:00:00Z,29.4012,-89.0355,1.0,26.29,11111222 
WAVCIS,ioos:station:WAVCIS:CSI16:1,2009-06-02T17:15:00Z,29.4012,-89.0355,1.0,24.045,11111222 
WAVCIS,ioos:station:WAVCIS:CSI16:1,2009-06-02T17:30:00Z,29.4012,-89.0355,1.0,25.271,11111222 
WAVCIS,ioos:station:WAVCIS:CSI16:1,2009-06-02T17:45:00Z,29.4012,-89.0355,1.0,25.409,11111222 
WAVCIS,ioos:station:WAVCIS:CSI16:1,2009-06-02T18:00:00Z,29.4012,-89.0355,1.0,23.073,11111222 
WAVCIS,ioos:station:WAVCIS:CSI16:1,2009-06-02T18:15:00Z,29.4012,-89.0355,1.0,25.023,11111222 
WAVCIS,ioos:station:WAVCIS:CSI16:1,2009-06-02T18:30:00Z,29.4012,-89.0355,1.0,23.489,11111222 
WAVCIS,ioos:station:WAVCIS:CSI16:1,2009-06-02T18:45:00Z,29.4012,-89.0355,1.0,23.614,11111222 
WAVCIS,ioos:station:WAVCIS:CSI16:1,2009-06-02T19:00:00Z,29.4012,-89.0355,1.0,23.456,11111222 
WAVCIS,ioos:station:WAVCIS:CSI16:1,2009-06-02T19:15:00Z,29.4012,-89.0355,1.0,17.841,11111222 
WAVCIS,ioos:station:WAVCIS:CSI16:1,2009-06-02T19:30:00Z,29.4012,-89.0355,1.0,23.504,11111222 
WAVCIS,ioos:station:WAVCIS:CSI16:1,2009-06-02T19:45:00Z,29.4012,-89.0355,1.0,20.351,11111222 
WAVCIS,ioos:station:WAVCIS:CSI16:1,2009-06-02T20:00:00Z,29.4012,-89.0355,1.0,18.737,11111222 
WAVCIS,ioos:station:WAVCIS:CSI16:1,2009-06-02T20:15:00Z,29.4012,-89.0355,1.0,23.132,11111222 
WAVCIS,ioos:station:WAVCIS:CSI16:1,2009-06-02T20:30:00Z,29.4012,-89.0355,1.0,15.48,11111222 
WAVCIS,ioos:station:WAVCIS:CSI16:1,2009-06-02T20:45:00Z,29.4012,-89.0355,1.0,16.544,11111222 
WAVCIS,ioos:station:WAVCIS:CSI16:1,2009-06-02T21:00:00Z,29.4012,-89.0355,1.0,14.689,11111222 
WAVCIS,ioos:station:WAVCIS:CSI16:1,2009-06-02T21:15:00Z,29.4012,-89.0355,1.0,12.985,11111222 
WAVCIS,ioos:station:WAVCIS:CSI16:1,2009-06-02T21:30:00Z,29.4012,-89.0355,1.0,12.204,11111222 
WAVCIS,ioos:station:WAVCIS:CSI16:1,2009-06-02T21:45:00Z,29.4012,-89.0355,1.0,11.913,11111222 
WAVCIS,ioos:station:WAVCIS:CSI16:1,2009-06-02T22:00:00Z,29.4012,-89.0355,1.0,11.715,11111222 
WAVCIS,ioos:station:WAVCIS:CSI16:1,2009-06-02T22:15:00Z,29.4012,-89.0355,1.0,11.991,11111222 
WAVCIS,ioos:station:WAVCIS:CSI16:1,2009-06-02T22:30:00Z,29.4012,-89.0355,1.0,12.001,11111222 
WAVCIS,ioos:station:WAVCIS:CSI16:1,2009-06-02T22:45:00Z,29.4012,-89.0355,1.0,12.245,11111222 
WAVCIS,ioos:station:WAVCIS:CSI16:1,2009-06-02T23:00:00Z,29.4012,-89.0355,1.0,12.117,11111222 
WAVCIS,ioos:station:WAVCIS:CSI16:1,2009-06-02T23:15:00Z,29.4012,-89.0355,1.0,11.837,11111222 
WAVCIS,ioos:station:WAVCIS:CSI16:1,2009-06-02T23:30:00Z,29.4012,-89.0355,1.0,11.242,11111222 
WAVCIS,ioos:station:WAVCIS:CSI16:1,2009-06-02T23:45:00Z,29.4012,-89.0355,1.0,10.041,11111222 
WAVCIS,ioos:station:WAVCIS:CSI16:1,2009-06-03T00:00:00Z,29.4012,-89.0355,1.0,9.719,11111222 
WAVCIS,ioos:station:WAVCIS:CSI16:1,2009-06-03T00:15:00Z,29.4012,-89.0355,1.0,9.125,11111222 
WAVCIS,ioos:station:WAVCIS:CSI16:1,2009-06-03T00:30:00Z,29.4012,-89.0355,1.0,9.341,11111222 
WAVCIS,ioos:station:WAVCIS:CSI16:1,2009-06-03T00:45:00Z,29.4012,-89.0355,1.0,11.507,11111222 
WAVCIS,ioos:station:WAVCIS:CSI16:1,2009-06-03T01:00:00Z,29.4012,-89.0355,1.0,11.71,11111222 
WAVCIS,ioos:station:WAVCIS:CSI16:1,2009-06-03T01:15:00Z,29.4012,-89.0355,1.0,13.263,11111222 
WAVCIS,ioos:station:WAVCIS:CSI16:1,2009-06-03T01:30:00Z,29.4012,-89.0355,1.0,13.43,11111222 
WAVCIS,ioos:station:WAVCIS:CSI16:1,2009-06-03T01:45:00Z,29.4012,-89.0355,1.0,13.629,11111222 
WAVCIS,ioos:station:WAVCIS:CSI16:1,2009-06-03T02:00:00Z,29.4012,-89.0355,1.0,14.133,11111222 
WAVCIS,ioos:station:WAVCIS:CSI16:1,2009-06-03T02:15:00Z,29.4012,-89.0355,1.0,14.264,11111222 
WAVCIS,ioos:station:WAVCIS:CSI16:1,2009-06-03T02:30:00Z,29.4012,-89.0355,1.0,14.812,11111222 
WAVCIS,ioos:station:WAVCIS:CSI16:1,2009-06-03T02:45:00Z,29.4012,-89.0355,1.0,15.334,11111222 
WAVCIS,ioos:station:WAVCIS:CSI16:1,2009-06-03T03:00:00Z,29.4012,-89.0355,1.0,16.388,11111222 
WAVCIS,ioos:station:WAVCIS:CSI16:1,2009-06-03T03:15:00Z,29.4012,-89.0355,1.0,15.914,11111222 
WAVCIS,ioos:station:WAVCIS:CSI16:1,2009-06-03T03:30:00Z,29.4012,-89.0355,1.0,15.633,11111222 
WAVCIS,ioos:station:WAVCIS:CSI16:1,2009-06-03T03:45:00Z,29.4012,-89.0355,1.0,15.547,11111222 
WAVCIS,ioos:station:WAVCIS:CSI16:1,2009-06-03T04:00:00Z,29.4012,-89.0355,1.0,17.699,11111222 
WAVCIS,ioos:station:WAVCIS:CSI16:1,2009-06-03T04:15:00Z,29.4012,-89.0355,1.0,18.398,11111222 
WAVCIS,ioos:station:WAVCIS:CSI16:1,2009-06-03T04:30:00Z,29.4012,-89.0355,1.0,20.051,11111222 
WAVCIS,ioos:station:WAVCIS:CSI16:1,2009-06-03T04:45:00Z,29.4012,-89.0355,1.0,20.265,11111222 
WAVCIS,ioos:station:WAVCIS:CSI16:1,2009-06-03T05:00:00Z,29.4012,-89.0355,1.0,18.939,11111222 
WAVCIS,ioos:station:WAVCIS:CSI16:1,2009-06-03T05:15:00Z,29.4012,-89.0355,1.0,16.114,11111222 
WAVCIS,ioos:station:WAVCIS:CSI16:1,2009-06-03T05:30:00Z,29.4012,-89.0355,1.0,17.17,11111222 
WAVCIS,ioos:station:WAVCIS:CSI16:1,2009-06-03T05:45:00Z,29.4012,-89.0355,1.0,16.299,11111222 
WAVCIS,ioos:station:WAVCIS:CSI16:1,2009-06-03T06:00:00Z,29.4012,-89.0355,1.0,19.7,11111222 
WAVCIS,ioos:station:WAVCIS:CSI16:1,2009-06-03T06:15:00Z,29.4012,-89.0355,1.0,18.459,11111222 
WAVCIS,ioos:station:WAVCIS:CSI16:1,2009-06-03T06:30:00Z,29.4012,-89.0355,1.0,16.782,11111222 
WAVCIS,ioos:station:WAVCIS:CSI16:1,2009-06-03T06:45:00Z,29.4012,-89.0355,1.0,17.763,11111222 
WAVCIS,ioos:station:WAVCIS:CSI16:1,2009-06-03T07:00:00Z,29.4012,-89.0355,1.0,17.824,11111222 
WAVCIS,ioos:station:WAVCIS:CSI16:1,2009-06-03T07:15:00Z,29.4012,-89.0355,1.0,15.123,11111222 
WAVCIS,ioos:station:WAVCIS:CSI16:1,2009-06-03T07:30:00Z,29.4012,-89.0355,1.0,15.004,11111222 
WAVCIS,ioos:station:WAVCIS:CSI16:1,2009-06-03T07:45:00Z,29.4012,-89.0355,1.0,15.661,11111222 
WAVCIS,ioos:station:WAVCIS:CSI16:1,2009-06-03T08:00:00Z,29.4012,-89.0355,1.0,17.413,11111222 
WAVCIS,ioos:station:WAVCIS:CSI16:1,2009-06-03T08:15:00Z,29.4012,-89.0355,1.0,16.973,11111222 
WAVCIS,ioos:station:WAVCIS:CSI16:1,2009-06-03T08:30:00Z,29.4012,-89.0355,1.0,17.314,11111222 
WAVCIS,ioos:station:WAVCIS:CSI16:1,2009-06-03T08:45:00Z,29.4012,-89.0355,1.0,20.298,11111222 
WAVCIS,ioos:station:WAVCIS:CSI16:1,2009-06-03T09:00:00Z,29.4012,-89.0355,1.0,22.791,11111222 
WAVCIS,ioos:station:WAVCIS:CSI16:1,2009-06-03T09:15:00Z,29.4012,-89.0355,1.0,25.125,11111222 
WAVCIS,ioos:station:WAVCIS:CSI16:1,2009-06-03T09:30:00Z,29.4012,-89.0355,1.0,25.746,11111222 
WAVCIS,ioos:station:WAVCIS:CSI16:1,2009-06-03T09:45:00Z,29.4012,-89.0355,1.0,25.967,11111222 
WAVCIS,ioos:station:WAVCIS:CSI16:1,2009-06-03T10:00:00Z,29.4012,-89.0355,1.0,26.166,11111222 
WAVCIS,ioos:station:WAVCIS:CSI16:1,2009-06-03T10:15:00Z,29.4012,-89.0355,1.0,26.226,11111222 
WAVCIS,ioos:station:WAVCIS:CSI16:1,2009-06-03T10:30:00Z,29.4012,-89.0355,1.0,26.258,11111222 
WAVCIS,ioos:station:WAVCIS:CSI16:1,2009-06-03T10:45:00Z,29.4012,-89.0355,1.0,26.241,11111222 
WAVCIS,ioos:station:WAVCIS:CSI16:1,2009-06-03T11:00:00Z,29.4012,-89.0355,1.0,26.241,11111222 
WAVCIS,ioos:station:WAVCIS:CSI16:1,2009-06-03T11:15:00Z,29.4012,-89.0355,1.0,26.255,11111222 
WAVCIS,ioos:station:WAVCIS:CSI16:1,2009-06-03T11:30:00Z,29.4012,-89.0355,1.0,26.386,11111222 
WAVCIS,ioos:station:WAVCIS:CSI16:1,2009-06-03T11:45:00Z,29.4012,-89.0355,1.0,26.224,11111222 
WAVCIS,ioos:station:WAVCIS:CSI16:1,2009-06-03T12:00:00Z,29.4012,-89.0355,1.0,26.31,11111222 
WAVCIS,ioos:station:WAVCIS:CSI16:1,2009-06-03T12:15:00Z,29.4012,-89.0355,1.0,26.288,11111222 
WAVCIS,ioos:station:WAVCIS:CSI16:1,2009-06-03T12:30:00Z,29.4012,-89.0355,1.0,26.316,11111222 
WAVCIS,ioos:station:WAVCIS:CSI16:1,2009-06-03T12:45:00Z,29.4012,-89.0355,1.0,26.428,11111222 
WAVCIS,ioos:station:WAVCIS:CSI16:1,2009-06-03T13:00:00Z,29.4012,-89.0355,1.0,26.484,11111222 
WAVCIS,ioos:station:WAVCIS:CSI16:1,2009-06-03T13:15:00Z,29.4012,-89.0355,1.0,27.272,11111222 
WAVCIS,ioos:station:WAVCIS:CSI16:1,2009-06-03T13:30:00Z,29.4012,-89.0355,1.0,27.173,11111222 
WAVCIS,ioos:station:WAVCIS:CSI16:1,2009-06-03T13:45:00Z,29.4012,-89.0355,1.0,26.971,11111222 
WAVCIS,ioos:station:WAVCIS:CSI16:1,2009-06-03T14:00:00Z,29.4012,-89.0355,1.0,26.441,11111222 
WAVCIS,ioos:station:WAVCIS:CSI16:1,2009-06-03T14:15:00Z,29.4012,-89.0355,1.0,29.2,11111222 
WAVCIS,ioos:station:WAVCIS:CSI16:1,2009-06-03T14:30:00Z,29.4012,-89.0355,1.0,28.568,11111222 
WAVCIS,ioos:station:WAVCIS:CSI16:1,2009-06-03T14:45:00Z,29.4012,-89.0355,1.0,28.624,11111222 
WAVCIS,ioos:station:WAVCIS:CSI16:1,2009-06-03T15:00:00Z,29.4012,-89.0355,1.0,27.16,11111222 
WAVCIS,ioos:station:WAVCIS:CSI16:1,2009-06-03T15:15:00Z,29.4012,-89.0355,1.0,28.919,11111222 